• MPC Preparation (Info)

  • MPEC 2023-K61 : 2023 JP5

    The following Minor Planet Electronic Circular may be linked-to from your own Web pages, but must not otherwise be redistributed electronically.

    A form allowing access to any MPEC is at the bottom of this page.


    Read MPEC 2023-K60 Read MPEC 2023-K62


    M.P.E.C. 2023-K61                                  Issued 2023 May 20, 16:17 UT
    
         The Minor Planet Electronic Circulars contain information on unusual
             minor planets, routine data on comets and natural satellites,
             and occasional editorial announcements.  They are published
        on behalf of Division F of the International Astronomical Union by the
              Minor Planet Center, Smithsonian Astrophysical Observatory,
                              Cambridge, MA 02138, U.S.A.
    			  
                 Prepared using the Tamkin Foundation Computer Network
    
                                  MPC@CFA.HARVARD.EDU
                URL https://www.minorplanetcenter.net/    ISSN 1523-6714
    
                                    2023 JP5                                 
    
    
    Observations:
         K23J05P* C2023 05 12.51662817 00 09.331-15 24 31.75         21.06wXEK061F52
         K23J05P  C2023 05 12.52761617 00 09.317-15 25 24.52         21.18wXEK061F52
         K23J05P  C2023 05 12.53856317 00 09.297-15 26 17.42         20.67wXEK061F52
         K23J05P  C2023 05 12.54950517 00 09.301-15 27 10.57         21.14wXEK061F52
         K23J05P  C2023 05 12.61046017 00 09.352-15 32 05.00         21.07GVEK061F51
         K23J05P  C2023 05 12.61127817 00 09.335-15 32 09.02         20.62GVEK061F51
         K23J05P |C2023 05 13.21573 17 00 22.67 -16 21 44.4          21.0 GuEK061807
         K23J05P |C2023 05 13.21866 17 00 22.68 -16 21 59.3          20.7 GuEK061807
         K23J05P |C2023 05 13.22160 17 00 22.66 -16 22 14.5          20.8 GuEK061807
         K23J05P |C2023 05 13.22454 17 00 22.66 -16 22 29.4          20.8 GuEK061807
         K23J05P  C2023 05 13.46508917 00 26.611-16 43 48.14         20.41GVEK061F51
         K23J05P  C2023 05 13.46573317 00 26.609-16 43 51.44         21.02GVEK061F51
         K23J05P KC2023 05 18.83897 17 01 21.35 -26 10 54.5          19.9 VZEK061M49
         K23J05P KC2023 05 18.86242 17 01 21.08 -26 13 56.4          20.1 VZEK061M49
         K23J05P KC2023 05 18.88420 17 01 20.77 -26 16 45.1          19.9 VZEK061M49
    
    Observer details:
    807 Cerro Tololo Observatory, La Serena.  Observers T. Linder, R. Holmes, L.
        Horn.  1.00-m f/10.0 astrograph + CCD.
    F51 Pan-STARRS 1, Haleakala.  Observers J. Bulger, K. Chambers, T. Lowe, A.
        Schultz, I. Smith.  Measurers S. Chastel, J. Fairlamb, M. Huber, Y.
        Ramanjooloo, R. Wainscoat, R. Weryk.  1.8-m Ritchey-Chretien + CCD.
    F52 Pan-STARRS 2, Haleakala.  Observers J. Bulger, T. Lowe, A. Schultz, I.
        Smith.  Measurers K. Chambers, S. Chastel, T. de Boer, J. Fairlamb, H.
        Gao, M. Huber, C.-C. Lin, E. Magnier, Y. Ramanjooloo, R. Wainscoat, R.
        Weryk.  1.8-m Ritchey-Chretien + CCD.
    M49 IAS Remote Observatory, Hakos.  Observers D. Husar, M. Junius.  Measurer
        D. Husar.  0.25-m f/4.6 reflector + CCD.
    
    Orbital elements:
    2023 JP5                                                 Earth MOID = 0.1077 AU
    Epoch 2023 Feb. 25.0 TT = JDT 2460000.5                 Bell                    
    M 266.94882              (2000.0)            P               Q                  
    n   0.60946685     Peri.  254.88421     +0.64618179     +0.71715259             
    a   1.3777465      Node    58.41018     -0.52777610     +0.66697806             
    e   0.3039810      Incl.   17.84532     -0.55127261     +0.20207038             
    P   1.62           H   23.29          G   0.15           U   8                  
    Residuals in seconds of arc
    230512 F52  0.1+  0.3-    230512 F51  0.1-  0.0     230513 F51  0.0   0.0
    230512 F52  0.0   0.1+    230513 807  0.1-  0.0     230513 F51  0.1+  0.0
    230512 F52  0.1-  0.2+    230513 807  0.1+  0.1+    230518 M49  0.0   0.2-
    230512 F52  0.1+  0.1-    230513 807  0.2-  0.1-    230518 M49  0.0   0.1-
    230512 F51  0.1+  0.0     230513 807  0.1-  0.1+    230518 M49  0.1+  0.3+
    
    Ephemeris:
    2023 JP5                 a,e,i = 1.38, 0.30, 18                  q = 0.9589
    Date    TT    R. A. (2000) Decl.     Delta      r    Elong.  Phase     V
    2023 04 20    16 46 15.5 -00 11 24   0.3614  1.2844   134.7    33.8    23.0
    ...
    2023 05 05    16 56 59.3 -07 35 13   0.2377  1.2143   146.9    27.0    21.8
    ...
    2023 05 13    17 00 18.1 -16 03 42   0.1814  1.1774   155.3    21.0    21.0
    ...
    2023 05 19    17 01 18.1 -26 31 33   0.1462  1.1502   160.3    17.3    20.3
    2023 05 20    17 01 18.6 -28 44 37   0.1411  1.1457   160.4    17.2    20.2
    2023 05 21    17 01 15.7 -31 06 57   0.1364  1.1413   160.3    17.4    20.2
    ...
    2023 05 27    16 59 25.4 -48 40 24   0.1151  1.1151   151.0    26.2    20.0
    ...
    2023 06 04    16 41 38.2 -77 14 47   0.1108  1.0818   125.1    50.1    20.5
    ...
    2023 06 19    05 19 16.2 -65 43 39   0.1609  1.0268    89.3    81.7    22.2
    
    M. P. C. Staff               (C) Copyright 2023 MPC           M.P.E.C. 2023-K61
    


    Read MPEC 2023-K60 Read MPEC 2023-K62


    MPEC number:

    Enter an MPEC number in one of the following forms:

    • 1997-B01 (the full form)
    • J97B01 (the packed version of the full form)
    • B01 (the abbreviated form)